OPS 4682 DEB, 12102

Orbit data source: Space-Track

OPS 4682 DEB, 12102 is space debris in LEO originally from a launch on Sat, 03 Apr 1965 UTC launched from the Air Force Western Test Range (AFWTR). Debris objects in space refer to the collection of defunct objects orbiting the Earth. Examples of debris include non-operational satellites, rocket bodies, and fragments generated from explosions, collisions, or faulty payload assembly.

Loading next visibility...
Identifier
12102, 1965-027G
Orbit
LEO
Country
Flag of USUS
Related business
Manufacturer
Unknown
Mission
Spacecraft
Bus & Motor
Unknown
Mass
Unknown
Launch date (UTC)
1965-04-03 (61 years ago)
Launch vehicle
Unknown
Launch site
Air Force Western Test Range (AFWTR)
Object type
Payload
Rocket body
Debris
Shape & HBR
Unknown shape, 0.1 m
Radar Cross Section
Small (<0.1 m²)

Expand to show TLE details & history
Last TLE update: 19 hours ago

TLE from 19 hours ago
0 OPS 4682 DEB
1 12102U 65027G   26106.98649286 -.00000135  00000-0 -48073-3 0  9999
2 12102  90.2530  13.1482 0025617 138.5532 235.6060 12.98734273882796
Epoch: 2026-04-16T23:40Z
TLE epoch observation values (Epoch: 2026-04-16T23:40:32.983Z)
Latitude
13.88542°
Longitude
172.82237°
Altitude
1,280.304 km
Speed
7.212 km/s
True Right ascension
00h 52m 20s
True Declination
13° 48' 39"
Sunlit
Object was in daylight at epoch
Visualization orbit readout
Latitude
Unknown
Longitude
Unknown
Altitude
Unknown
Speed
Unknown
Apparent Right ascension
Unknown
Apparent Declination
Unknown
Sunlit
N/A
Visualization observer readout
Local Sidereal Time
01:26:59
Azimuth
Unknown
Elevation
Unknown
Doppler factor
Unknown
Orbital elements
Apogee altitude
1,283.756 km
Perigee altitude
1,244.601 km
Semi-major axis
7,642.316 km
Eccentricity
0.00256
Inclination
90.253°
RAAN
13.1482°
Arg. of periapsis
138.5532°
True anomaly
235.36421°
Mean anomaly
235.606°
Eccentric anomaly
235.48506°
Mean motion
3.24867 °/min
Orbital period
110.81 mins
BSTAR
-0.00048073
Loading maneuver chart data...
Computing Atmospheric mass density...
Loading historical data...
Loading historical data...
Loading historical data...
Loading historical data...
Loading historical data...
Loading historical data...
Loading historical data...

Documentation

Showing up to 5 results
|